Location: *
(18.5200°S, 46.4500°E)
Time: 22:29:08
(UTC+00:00)

Cosmos 1725 Rocket - Pass Details

Date: 19 July 2019
Orbit: 961 x 991 km, 82.9° (Epoch: 25 August)

Event Time Altitude Azimuth Distance (km) Brightness Sun altitude
Rises 15:31:56 0° 180° (S) 3,673 6.8 -13.5°
Reaches altitude 10° 15:34:28 10° 177° (S) 2,724 6.1 -14.1°
Maximum altitude 15:40:40 66° 95° (E) 1,058 3.9 -15.5°
Drops below altitude 10° 15:46:51 10° 13° (NNE) 2,719 6.4 -16.9°
Sets 15:49:22 0° 10° (N) 3,666 7.1 -17.5°
